Regional Weather Roundup
Issued by NWS Sioux Falls, SD

Home | Current Version | Previous Version | Text Only | Print | Product List | Glossary On
Versions: 1 2 3 4 5 6 7 8 9 10 11 12 13 14 15 16 17 18 19 20 21 22 23 24 25 26 27 28 29 30 31 32 33 34 35 36 37 38 39 40 41 42 43 44 45 46 47 48 49 50
000
ASUS43 KFSD 231710
RWRFSD

WEATHER ROUNDUP FOR SE SOUTH DAKOTA/SW MINNESOTA/NW IOWA
NATIONAL WEATHER SERVICE SIOUX FALLS SD
1100 AM CST THU FEB 23 2017

NOTE: "FAIR" INDICATES FEW OR NO CLOUDS BELOW 12,000 FEET WITH NO
SIGNIFICANT WEATHER AND OR OBSTRUCTIONS TO VISIBILITY.


SDZ038>040-050-052>070-231800-
SOUTHEAST SOUTH DAKOTA

CITY           SKY/WX    TMP DP  RH WIND       PRES   REMARKS
BROOKINGS      CLOUDY    29  24  82 NE18G24   29.89R WCI  16
CHAMBERLAIN    CLOUDY    32  26  77 NE12      29.93R WCI  23
HURON          CLOUDY    32  24  72 NE15      29.93F WCI  22
MADISON        CLOUDY    28  28 100 NE16G23   29.89R WCI  17
MITCHELL       CLOUDY    33  25  72 NE14      29.93R WCI  23
SIOUX FALLS    CLOUDY    32  26  78 NE18      29.88S WCI  20
WINNER         LGT SNOW  29  25  85 NE18      29.89R VSB 3/4 WCI  16
YANKTON        CLOUDY    32  27  80 NE13      29.84S WCI  22
$$

MNZ071-072-080-081-089-090-097-098-231800-
SOUTHWEST MINNESOTA

CITY           SKY/WX    TMP DP  RH WIND       PRES   REMARKS
FAIRMONT       CLOUDY    33  29  85 NE14      29.87F WCI  23
JACKSON          N/A     32  28  86 NE15      29.86F WCI  22
LUVERNE        CLOUDY    32  27  80 NE15G21   29.87R WCI  22
MARSHALL       CLOUDY    31  26  82 N13       29.93R WCI  21
MONTEVIDEO     CLOUDY    30  27  86 E10       29.96S WCI  21
PIPESTONE      CLOUDY    30  23  74 NE15      29.87S WCI  19
REDWOOD FALLS  CLOUDY    33  24  69 NE8       29.92F WCI  26
TRACY          CLOUDY    32  28  83 N12       29.92S WCI  23
WINDOM         CLOUDY    32  27  80 NE14      29.88S WCI  22
WORTHINGTON    CLOUDY    31  26  82 NE17      29.86S WCI  19
$$

IAZ001>003-012>014-020>022-031-032-NEZ013-014-SDZ071-231800-
NORTHWEST IOWA

CITY           SKY/WX    TMP DP  RH WIND       PRES   REMARKS
CHEROKEE       CLOUDY    34  31  90 NE15G21   29.81F WCI  24
DENISON        CLOUDY    37  34  87 NE22      29.74F
ESTHERVILLE    CLOUDY    32  30  92 NE17      29.84F WCI  21
LE MARS        CLOUDY    34  30  86 NE16      29.83F WCI  23
ORANGE CITY    CLOUDY    34  30  86 NE10      29.82F WCI  26
SHELDON        CLOUDY    32  32 100 NE18      29.82F WCI  20
SIOUX CITY     CLOUDY    37  30  75 NE13      29.80F
SPENCER        CLOUDY    34  29  82 NE16      29.83F WCI  24
STORM LAKE     CLOUDY    34  32  93 NE20      29.80R WCI  22
$$

ABBREVIATIONS USED IN REMARKS
   TC - TEMPERATURE IN CELSIUS
  WCI - WIND CHILL INDEX
   HX - HEAT INDEX
  VSB - VISIBILITY





USA.gov is the U.S. government's official web portal to all federal, state and local government web resources and services.